[[{"header":{"parameterUnit":"m.s-1","parameterCategory":1,"la1":30.2991,"la2":30.254,"lo1":-89.0895,"lo2":-89.0444,"dy":0.0017,"dx":0.0017,"nx":28,"ny":28,"refTime":"2024-08-27T21:00:00:Z","depth":0,"parameterNumber":2,"parameterNumberName":"U-component_of_WINDS"},"data":[0,0,0,0,0,0,0,0,0,0,0,0,0,0,0,0,0,0,0,0,0,0,0,0,0,0,0,0,0,0,0,0,0,0,0,0,0,0,0,0,0,0,0,0,0,0,0,0,0,0,0,0,0,0,0,0,0,0,-1.647,-1.6469,0,-1.6377,-1.6376,-1.6375,-1.6255,-1.6253,-1.6251,-1.625,-1.6159,-1.6159,-1.6158,0,0,0,0,0,0,0,0,0,0,0,0,0,-1.6547,-1.6547,-1.647,-1.6469,-1.6468,-1.6377,-1.6376,-1.6375,-1.6256,-1.6253,-1.6251,-1.6249,-1.6159,-1.6159,-1.6158,0,0,0,0,0,0,0,0,0,0,0,0,0,-1.649,-1.6546,-1.647,-1.6397,-1.639,-1.6377,-1.6376,-1.6374,-1.6256,-1.6253,-1.625,-1.6248,-1.616,-1.6159,-1.6158,-1.6211,0,0,-1.6155,-1.6155,0,0,0,0,0,0,0,0,-1.6494,-1.6488,-1.6409,-1.6402,-1.6394,-1.6325,-1.637,-1.632,-1.6257,-1.6307,-1.625,-1.6246,-1.6217,-1.6211,-1.62,-1.6207,-1.6203,-1.6155,-1.6154,-1.6154,-1.6154,0,0,0,0,0,0,0,-1.6498,-1.6491,-1.6433,-1.6408,-1.6399,-1.637,-1.6359,-1.636,-1.628,-1.6302,-1.6294,-1.6284,-1.6212,-1.6201,-1.6197,-1.6201,-1.6155,-1.6154,-1.6154,-1.6153,-1.6245,-1.6248,0,0,0,0,0,0,-1.6512,-1.6495,-1.6436,-1.6431,-1.6437,-1.6371,-1.6358,-1.635,-1.6279,-1.6266,-1.6287,-1.6279,-1.6204,-1.6198,-1.6194,-1.625,-1.6154,-1.6153,-1.6153,-1.6242,-1.6246,-1.6249,0,0,0,0,0,0,-1.6514,-1.6508,-1.644,-1.646,-1.6449,-1.6373,-1.6364,-1.635,-1.6339,-1.6267,-1.6253,-1.629,-1.6202,-1.6195,-1.6207,-1.6246,-1.6153,-1.6152,-1.6239,-1.6243,-1.6248,-1.6365,0,0,0,0,0,0,-1.6517,-1.651,-1.6529,-1.6462,-1.6449,-1.6455,-1.6367,-1.635,-1.6337,-1.6326,-1.6267,-1.6254,-1.6199,-1.6209,-1.6206,-1.6243,-1.6151,-1.6235,-1.6241,-1.6246,-1.6358,-1.6373,-1.6387,0,0,0,0,0,-1.652,-1.6567,-1.653,-1.6524,-1.6471,-1.6457,-1.645,-1.6384,-1.6341,-1.6359,-1.6313,-1.6256,-1.6241,-1.6211,-1.6207,-1.6244,-1.6232,-1.6239,-1.6246,-1.6351,-1.637,-1.6386,0,0,0,0,0,0,-1.6643,-1.6557,-1.6515,-1.6541,-1.6507,-1.6437,-1.6459,-1.6406,-1.6385,-1.6376,-1.6296,-1.6284,-1.6306,-1.6276,-1.6243,-1.6291,-1.6228,-1.6235,-1.631,-1.6328,-1.6342,-1.6349,-1.6151,0,0,0,0,0,-1.6672,-1.6667,-1.6593,-1.6623,-1.6608,-1.6536,-1.6528,-1.648,-1.6442,-1.6427,-1.6382,-1.6349,-1.6336,-1.633,-1.6315,-1.6352,-1.6337,-1.6375,-1.639,-1.6402,-1.6409,-1.6426,-1.6442,-1.6271,-1.6271,-1.6271,0,0,-1.6735,-1.6687,-1.6689,-1.6646,-1.6614,-1.6611,-1.6525,-1.6526,-1.6524,-1.6428,-1.6436,-1.6402,-1.6359,-1.6384,-1.6392,-1.6359,-1.6452,-1.6411,-1.6421,-1.6421,-1.6434,-1.6451,-1.6465,-1.6276,-1.6275,-1.6274,0,0,-1.6846,-1.6809,-1.683,-1.6799,-1.675,-1.6702,-1.6707,-1.6644,-1.6617,-1.6623,-1.6551,-1.6547,-1.6527,-1.6499,-1.6483,-1.6581,-1.6528,-1.6578,-1.6655,-1.6672,-1.6686,-1.6697,-1.6732,-1.6746,-1.6585,-1.6585,-1.6585,0,-1.693,-1.6922,-1.6848,-1.6852,-1.6836,-1.6746,-1.6767,-1.6741,-1.6691,-1.6682,-1.6645,-1.6617,-1.6582,-1.6599,-1.6622,-1.6612,-1.6615,-1.6586,-1.6689,-1.67,-1.671,-1.6743,-1.6756,-1.6592,-1.6591,-1.659,-1.659,0,-1.7027,-1.7023,-1.7045,-1.6997,-1.6982,-1.6996,-1.6924,-1.6918,-1.6871,-1.6827,-1.6834,-1.6788,-1.6762,-1.6762,-1.6716,-1.6772,-1.6752,-1.6704,-1.6639,-1.6734,-1.6763,-1.6775,-1.6601,-1.6599,-1.6597,-1.6595,0,0,-1.7216,-1.7124,-1.7134,-1.711,-1.7049,-1.7044,-1.7053,-1.7025,-1.7022,-1.699,-1.6995,-1.6979,-1.6933,-1.6914,-1.6864,-1.6879,-1.696,-1.6828,-1.6826,-1.6855,-1.7018,-1.7056,-1.7072,-1.6923,-1.6925,-1.6927,-1.7022,0,-1.7317,-1.7325,-1.7258,-1.7285,-1.7279,-1.7193,-1.72,-1.7164,-1.7122,-1.7112,-1.7067,-1.7057,-1.6996,-1.6984,-1.6995,-1.6948,-1.6992,-1.694,-1.6929,-1.693,-1.6944,-1.7087,-1.7127,-1.7219,-1.7033,-1.7034,-1.7036,0,-1.7437,-1.7409,-1.7435,-1.737,-1.7365,-1.7373,-1.7341,-1.7332,-1.7289,-1.7258,-1.7235,-1.7177,-1.7182,-1.7119,-1.7124,-1.709,-1.7081,-1.7058,-1.7059,-1.7057,-1.699,-1.7089,-1.7246,-1.7261,-1.7053,-1.7052,-1.7051,0,-1.7572,-1.7541,-1.7552,-1.7535,-1.746,-1.7467,-1.7437,-1.739,-1.7377,-1.7349,-1.734,-1.7314,-1.73,-1.7281,-1.7218,-1.7178,-1.723,-1.7163,-1.7205,-1.7207,-1.7221,-1.7222,-1.7381,-1.7214,-1.7214,-1.7214,-1.7214,0,-1.7693,-1.7712,-1.7612,-1.7619,-1.7638,-1.756,-1.7581,-1.7542,-1.7501,-1.7499,-1.7423,-1.7424,-1.7339,-1.733,-1.7281,-1.7292,-1.7286,-1.7262,-1.7249,-1.7269,-1.7273,-1.7264,-1.7256,-1.7217,-1.7217,-1.7216,-1.7215,0,-1.7849,-1.7782,-1.7788,-1.7716,-1.7698,-1.7715,-1.7654,-1.7657,-1.761,-1.7609,-1.7604,-1.753,-1.7515,-1.7449,-1.742,-1.7386,-1.7415,-1.7388,-1.7429,-1.7421,-1.7467,-1.7464,-1.7627,-1.7644,-1.7467,-1.7468,-1.747,0,-1.7931,-1.7943,-1.7871,-1.7864,-1.7836,-1.7825,-1.781,-1.7733,-1.7722,-1.7672,-1.7682,-1.766,-1.7639,-1.762,-1.7564,-1.7541,-1.7513,-1.7572,-1.751,-1.7529,-1.7515,-1.7515,-1.7516,-1.7586,-1.7588,-1.759,-1.7592,0,-1.8084,-1.8049,-1.803,-1.8,-1.7984,-1.7957,-1.7925,-1.7923,-1.7838,-1.7828,-1.7811,-1.7795,-1.7762,-1.7742,-1.7709,-1.7678,-1.7622,-1.7611,-1.762,-1.7642,-1.7666,-1.7654,-1.7467,-1.7608,-1.7607,-1.7606,-1.7605,-1.7604,-1.8205,-1.8212,-1.8161,-1.8143,-1.811,-1.8082,-1.8081,-1.8032,-1.8016,-1.7983,-1.7938,-1.7927,-1.7882,-1.7831,-1.7804,-1.7794,-1.7762,-1.7775,-1.7778,-1.7783,-1.7793,-1.7666,-1.7788,-1.7787,-1.7787,-1.7786,-1.7786,0,-1.8354,-1.8317,-1.83,-1.8257,-1.8242,-1.8187,-1.8148,-1.814,-1.813,-1.8092,-1.8072,-1.8052,-1.8031,-1.7973,-1.7947,-1.795,-1.7923,-1.7946,-1.7946,-1.7939,-1.7823,-1.7819,-1.7968,-1.7968,-1.7968,-1.7968,-1.7968,-1.7968,-1.843,-1.8438,-1.8398,-1.8389,-1.8351,-1.8338,-1.8321,-1.8294,-1.8263,-1.8243,-1.8225,-1.8186,-1.814,-1.8109,-1.8088,-1.8071,-1.8065,-1.8097,-1.8072,-1.7965,-1.7948,-1.7931,-1.7926,-1.8096,-1.8096,-1.8189,-1.819,-1.819]},{"header":{"parameterUnit":"m.s-1","parameterCategory":1,"la1":30.2991,"la2":30.254,"lo1":-89.0895,"lo2":-89.0444,"dy":0.0017,"dx":0.0017,"nx":28,"ny":28,"refTime":"2024-08-27T21:00:00:Z","depth":0,"parameterNumber":3,"parameterNumberName":"V-component_of_WINDS"},"data":[0,0,0,0,0,0,0,0,0,0,0,0,0,0,0,0,0,0,0,0,0,0,0,0,0,0,0,0,0,0,0,0,0,0,0,0,0,0,0,0,0,0,0,0,0,0,0,0,0,0,0,0,0,0,0,0,0,0,-2.0435,-2.0436,0,-2.0507,-2.0508,-2.0508,-2.0477,-2.0475,-2.0473,-2.0472,-2.0541,-2.0545,-2.0548,0,0,0,0,0,0,0,0,0,0,0,0,0,-2.0265,-2.0269,-2.0435,-2.0436,-2.0437,-2.0507,-2.0508,-2.0509,-2.0477,-2.0475,-2.0473,-2.0471,-2.054,-2.0544,-2.0548,0,0,0,0,0,0,0,0,0,0,0,0,0,-2.0338,-2.027,-2.0435,-2.0429,-2.043,-2.0506,-2.0508,-2.0509,-2.0478,-2.0475,-2.0472,-2.047,-2.0539,-2.0544,-2.0549,-2.0633,0,0,-2.0565,-2.0567,0,0,0,0,0,0,0,0,-2.0334,-2.0345,-2.0429,-2.043,-2.043,-2.048,-2.0473,-2.055,-2.0478,-2.0459,-2.0472,-2.0469,-2.0523,-2.0529,-2.0548,-2.0637,-2.064,-2.0565,-2.0568,-2.0571,-2.0572,0,0,0,0,0,0,0,-2.0329,-2.0341,-2.0463,-2.0431,-2.0431,-2.0422,-2.0429,-2.0488,-2.0505,-2.0461,-2.0459,-2.0468,-2.0522,-2.0543,-2.055,-2.0641,-2.0565,-2.057,-2.0573,-2.0575,-2.0801,-2.0804,0,0,0,0,0,0,-2.0325,-2.0337,-2.0461,-2.0465,-2.0375,-2.0427,-2.0436,-2.0467,-2.0504,-2.0507,-2.047,-2.0466,-2.0536,-2.0544,-2.0552,-2.0653,-2.0571,-2.0575,-2.0578,-2.0798,-2.0802,-2.0805,0,0,0,0,0,0,-2.0321,-2.0336,-2.0458,-2.0401,-2.0416,-2.0433,-2.0468,-2.047,-2.049,-2.0511,-2.0513,-2.0489,-2.0534,-2.0545,-2.0614,-2.0655,-2.0578,-2.0583,-2.0795,-2.0799,-2.0803,-2.0856,0,0,0,0,0,0,-2.0317,-2.0335,-2.0368,-2.0402,-2.0419,-2.052,-2.0471,-2.0473,-2.05,-2.0496,-2.0529,-2.0532,-2.0533,-2.0606,-2.0619,-2.066,-2.0587,-2.0791,-2.0797,-2.0802,-2.085,-2.0861,-2.087,0,0,0,0,0,-2.0311,-2.0379,-2.037,-2.0385,-2.0461,-2.0522,-2.0532,-2.0532,-2.0504,-2.0536,-2.055,-2.0531,-2.0648,-2.0613,-2.0627,-2.0671,-2.0789,-2.0795,-2.0801,-2.0846,-2.0859,-2.087,0,0,0,0,0,0,-2.0349,-2.0384,-2.0374,-2.0456,-2.0487,-2.0517,-2.0558,-2.0547,-2.0585,-2.0579,-2.0577,-2.0585,-2.0656,-2.067,-2.0631,-2.0755,-2.0714,-2.0723,-2.0742,-2.0755,-2.0765,-2.076,-2.0591,0,0,0,0,0,-2.0367,-2.0416,-2.0443,-2.0512,-2.0528,-2.0541,-2.0568,-2.0566,-2.0597,-2.0609,-2.0627,-2.0657,-2.07,-2.0728,-2.077,-2.0852,-2.0858,-2.0889,-2.09,-2.0908,-2.0916,-2.096,-2.0973,-2.0826,-2.0826,-2.0826,0,0,-2.0405,-2.043,-2.046,-2.0521,-2.0544,-2.0593,-2.0552,-2.0605,-2.0641,-2.0616,-2.0683,-2.0697,-2.073,-2.0806,-2.084,-2.082,-2.0958,-2.0916,-2.0922,-2.0926,-2.0968,-2.0982,-2.0994,-2.0831,-2.083,-2.0829,0,0,-2.0498,-2.0523,-2.0583,-2.0608,-2.0644,-2.0652,-2.0667,-2.0699,-2.0708,-2.0775,-2.0758,-2.0799,-2.0875,-2.0898,-2.092,-2.1023,-2.1007,-2.1036,-2.1089,-2.1132,-2.1143,-2.1153,-2.1189,-2.1202,-2.1044,-2.1045,-2.1045,0,-2.054,-2.0614,-2.0615,-2.067,-2.0697,-2.0679,-2.0739,-2.0762,-2.081,-2.0828,-2.0805,-2.0899,-2.092,-2.1001,-2.1026,-2.1044,-2.106,-2.1032,-2.1142,-2.1152,-2.1161,-2.1195,-2.1209,-2.1048,-2.1047,-2.1047,-2.1047,0,-2.0663,-2.0714,-2.0758,-2.0807,-2.0838,-2.0895,-2.0904,-2.0935,-2.0931,-2.0941,-2.1008,-2.1033,-2.1078,-2.1097,-2.1093,-2.1178,-2.1164,-2.1142,-2.11,-2.1179,-2.121,-2.1224,-2.1053,-2.1051,-2.105,-2.105,0,0,-2.0781,-2.083,-2.0846,-2.0868,-2.0907,-2.0946,-2.1002,-2.1048,-2.1074,-2.1108,-2.1153,-2.1218,-2.1197,-2.1222,-2.122,-2.1258,-2.1336,-2.1231,-2.1231,-2.1249,-2.143,-2.1446,-2.1461,-2.1326,-2.1329,-2.1331,-2.1427,0,-2.0877,-2.0977,-2.0979,-2.107,-2.1117,-2.11,-2.1149,-2.1177,-2.1188,-2.1228,-2.1239,-2.1285,-2.1255,-2.127,-2.1306,-2.1319,-2.1372,-2.1312,-2.1367,-2.1369,-2.1359,-2.1478,-2.1495,-2.1584,-2.1439,-2.1441,-2.1443,0,-2.1001,-2.104,-2.1136,-2.1168,-2.1188,-2.1232,-2.1274,-2.1313,-2.1345,-2.135,-2.1378,-2.137,-2.1425,-2.1383,-2.1459,-2.1418,-2.144,-2.145,-2.1453,-2.1457,-2.141,-2.1484,-2.1613,-2.1626,-2.1463,-2.1461,-2.146,0,-2.1077,-2.1153,-2.122,-2.1239,-2.1279,-2.131,-2.1328,-2.1357,-2.1384,-2.142,-2.1438,-2.148,-2.1502,-2.1534,-2.1537,-2.1507,-2.1613,-2.1571,-2.1617,-2.1617,-2.1639,-2.1638,-2.1773,-2.1656,-2.1656,-2.1655,-2.1655,0,-2.1183,-2.1241,-2.1255,-2.1296,-2.1361,-2.1363,-2.1427,-2.1442,-2.1468,-2.151,-2.1499,-2.1538,-2.1541,-2.1581,-2.1584,-2.1645,-2.1656,-2.166,-2.166,-2.1661,-2.166,-2.1675,-2.1668,-2.1659,-2.1658,-2.1657,-2.1657,0,-2.1278,-2.1289,-2.1361,-2.1393,-2.1403,-2.1449,-2.1476,-2.1514,-2.1524,-2.1578,-2.1591,-2.1606,-2.1653,-2.1659,-2.1714,-2.1715,-2.1789,-2.1783,-2.1779,-2.1778,-2.1823,-2.1818,-2.1971,-2.1991,-2.1862,-2.1863,-2.1864,0,-2.1344,-2.1389,-2.1426,-2.1455,-2.1475,-2.1521,-2.1549,-2.1553,-2.1582,-2.1622,-2.1655,-2.1701,-2.1738,-2.1813,-2.1828,-2.1869,-2.1863,-2.1914,-2.1869,-2.1869,-2.1863,-2.186,-2.1864,-2.1922,-2.1924,-2.1925,-2.1926,0,-2.1459,-2.1463,-2.1505,-2.155,-2.1584,-2.1619,-2.1652,-2.1675,-2.1683,-2.1716,-2.1765,-2.1794,-2.1851,-2.1896,-2.1937,-2.1953,-2.194,-2.194,-2.1953,-2.1953,-2.1949,-2.1951,-2.1801,-2.1936,-2.1935,-2.1934,-2.1934,-2.1933,-2.1541,-2.158,-2.1613,-2.166,-2.1686,-2.1717,-2.1754,-2.177,-2.1811,-2.1858,-2.1858,-2.1911,-2.194,-2.1995,-2.2014,-2.2054,-2.2037,-2.2056,-2.206,-2.2065,-2.2069,-2.1944,-2.2062,-2.2061,-2.2061,-2.2061,-2.2061,0,-2.1655,-2.1676,-2.172,-2.1766,-2.1803,-2.1791,-2.1826,-2.1857,-2.1905,-2.1934,-2.1971,-2.2027,-2.2071,-2.2089,-2.2132,-2.2161,-2.2156,-2.2172,-2.2169,-2.2173,-2.2082,-2.2066,-2.2175,-2.2175,-2.2175,-2.2175,-2.2175,-2.2175,-2.1719,-2.1785,-2.1792,-2.187,-2.1889,-2.1943,-2.1964,-2.1992,-2.2016,-2.2079,-2.2116,-2.2129,-2.2153,-2.2198,-2.2237,-2.2241,-2.2257,-2.2275,-2.2277,-2.2191,-2.2179,-2.2168,-2.2154,-2.2279,-2.2279,-2.2364,-2.2365,-2.2365]}]]